Time,TemperatureF,DewpointF,PressureIn,WindDirection,WindDirectionDegrees,WindSpeedMPH,WindSpeedGustMPH,Humidity,HourlyPrecipIn,Conditions,Clouds,dailyrainin,SoftwareType,DateUTC
2013-08-24 00:01:00,64.0,54.5,30.18,South,180,7.0,8.0,71,0.00,,,0.00,meteohub,2013-08-24 05:01:00,
2013-08-24 00:06:00,64.0,54.5,30.18,South,180,7.0,8.0,71,0.00,,,0.00,meteohub,2013-08-24 05:06:00,
2013-08-24 00:11:00,63.5,54.3,30.18,South,180,4.0,8.0,72,0.00,,,0.00,meteohub,2013-08-24 05:11:00,
2013-08-24 00:16:00,63.5,54.0,30.18,South,180,8.0,8.0,71,0.00,,,0.00,meteohub,2013-08-24 05:16:00,
2013-08-24 00:21:00,63.5,54.0,30.19,SE,135,6.0,8.0,71,0.00,,,0.00,meteohub,2013-08-24 05:21:00,
2013-08-24 00:27:00,63.5,54.0,30.18,SW,225,5.0,9.0,71,0.00,,,0.00,meteohub,2013-08-24 05:27:00,
2013-08-24 00:32:00,63.3,54.1,30.19,South,180,8.0,9.0,72,0.00,,,0.00,meteohub,2013-08-24 05:32:00,
2013-08-24 00:37:00,63.1,54.0,30.18,South,180,5.0,9.0,72,0.00,,,0.00,meteohub,2013-08-24 05:37:00,
2013-08-24 00:42:00,63.1,54.0,30.19,SE,135,6.0,8.0,72,0.00,,,0.00,meteohub,2013-08-24 05:42:00,
2013-08-24 00:47:00,63.0,53.8,30.19,SE,135,7.0,8.0,72,0.00,,,0.00,meteohub,2013-08-24 05:47:00,
2013-08-24 00:52:00,63.0,53.8,30.19,South,180,8.0,8.0,72,0.00,,,0.00,meteohub,2013-08-24 05:52:00,
2013-08-24 00:57:00,62.8,53.6,30.19,SE,135,5.0,8.0,72,0.00,,,0.00,meteohub,2013-08-24 05:57:00,
2013-08-24 01:02:00,62.6,53.4,30.19,SW,225,6.0,8.0,72,0.00,,,0.00,meteohub,2013-08-24 06:02:00,
2013-08-24 01:07:00,62.4,53.2,30.19,South,180,6.0,8.0,72,0.00,,,0.00,meteohub,2013-08-24 06:07:00,
2013-08-24 01:12:00,62.2,53.1,30.19,SE,135,6.0,7.0,72,0.00,,,0.00,meteohub,2013-08-24 06:12:00,
2013-08-24 01:17:00,62.2,52.7,30.19,South,180,5.0,7.0,71,0.00,,,0.00,meteohub,2013-08-24 06:17:00,
2013-08-24 01:22:00,62.2,52.7,30.19,SE,135,6.0,7.0,71,0.00,,,0.00,meteohub,2013-08-24 06:22:00,
2013-08-24 01:27:00,62.2,52.7,30.19,SE,135,7.0,7.0,71,0.00,,,0.00,meteohub,2013-08-24 06:27:00,
2013-08-24 01:33:00,62.1,52.9,30.18,East,90,5.0,7.0,72,0.00,,,0.00,meteohub,2013-08-24 06:33:00,
2013-08-24 01:38:00,62.1,52.5,30.19,South,180,4.0,8.0,71,0.00,,,0.00,meteohub,2013-08-24 06:38:00,
2013-08-24 01:43:00,62.1,52.5,30.19,SSE,158,6.0,8.0,71,0.00,,,0.00,meteohub,2013-08-24 06:43:00,
2013-08-24 01:48:00,62.1,52.5,30.19,South,180,5.0,8.0,71,0.00,,,0.00,meteohub,2013-08-24 06:48:00,
2013-08-24 01:53:00,61.9,52.3,30.19,South,180,4.0,8.0,71,0.00,,,0.00,meteohub,2013-08-24 06:53:00,
2013-08-24 01:58:00,61.9,52.3,30.19,South,180,6.0,7.0,71,0.00,,,0.00,meteohub,2013-08-24 06:58:00,
2013-08-24 02:03:00,61.9,52.3,30.19,South,180,6.0,6.0,71,0.00,,,0.00,meteohub,2013-08-24 07:03:00,
2013-08-24 02:08:00,61.7,52.2,30.19,South,180,6.0,6.0,71,0.00,,,0.00,meteohub,2013-08-24 07:08:00,
2013-08-24 02:13:00,61.9,52.3,30.19,South,180,7.0,7.0,71,0.00,,,0.00,meteohub,2013-08-24 07:13:00,
2013-08-24 02:18:00,61.7,52.2,30.19,West,270,4.0,7.0,71,0.00,,,0.00,meteohub,2013-08-24 07:18:00,
2013-08-24 02:23:00,61.5,52.0,30.19,East,90,3.0,7.0,71,0.00,,,0.00,meteohub,2013-08-24 07:23:00,
2013-08-24 02:29:00,61.5,52.0,30.19,SE,135,7.0,7.0,71,0.00,,,0.00,meteohub,2013-08-24 07:29:00,
2013-08-24 02:34:00,61.5,52.0,30.19,South,180,4.0,7.0,71,0.00,,,0.00,meteohub,2013-08-24 07:34:00,
2013-08-24 02:39:00,61.5,52.0,30.19,SE,135,5.0,7.0,71,0.00,,,0.00,meteohub,2013-08-24 07:39:00,
2013-08-24 02:44:00,61.3,51.8,30.19,South,180,7.0,7.0,71,0.00,,,0.00,meteohub,2013-08-24 07:44:00,
2013-08-24 02:49:00,61.5,52.0,30.19,South,180,5.0,7.0,71,0.00,,,0.00,meteohub,2013-08-24 07:49:00,
2013-08-24 02:54:00,61.5,52.0,30.19,South,180,6.0,7.0,71,0.00,,,0.00,meteohub,2013-08-24 07:54:00,
2013-08-24 02:59:00,61.3,51.8,30.19,SE,135,4.0,9.0,71,0.00,,,0.00,meteohub,2013-08-24 07:59:00,
2013-08-24 03:04:00,61.3,51.8,30.19,SE,135,4.0,9.0,71,0.00,,,0.00,meteohub,2013-08-24 08:04:00,
2013-08-24 03:09:00,61.2,51.6,30.19,South,180,5.0,9.0,71,0.00,,,0.00,meteohub,2013-08-24 08:09:00,
2013-08-24 03:14:00,61.2,52.0,30.19,South,180,4.0,7.0,72,0.00,,,0.00,meteohub,2013-08-24 08:14:00,
2013-08-24 03:19:00,61.2,51.6,30.20,SW,225,4.0,7.0,71,0.00,,,0.00,meteohub,2013-08-24 08:19:00,
2013-08-24 03:25:00,61.0,52.0,30.20,WNW,293,4.0,7.0,72,0.00,,,0.00,meteohub,2013-08-24 08:25:00,
2013-08-24 03:30:00,61.0,52.0,30.20,South,180,6.0,7.0,72,0.00,,,0.00,meteohub,2013-08-24 08:30:00,
2013-08-24 03:35:00,61.0,52.0,30.20,South,180,4.0,7.0,72,0.00,,,0.00,meteohub,2013-08-24 08:35:00,
2013-08-24 03:40:00,61.0,52.0,30.20,SSW,203,4.0,7.0,72,0.00,,,0.00,meteohub,2013-08-24 08:40:00,
2013-08-24 03:45:00,60.8,51.8,30.20,SSW,203,5.0,6.0,72,0.00,,,0.00,meteohub,2013-08-24 08:45:00,
2013-08-24 03:50:00,60.8,52.2,30.20,East,90,2.0,6.0,73,0.00,,,0.00,meteohub,2013-08-24 08:50:00,
2013-08-24 03:55:00,60.4,51.8,30.20,South,180,3.0,6.0,73,0.00,,,0.00,meteohub,2013-08-24 08:55:00,
2013-08-24 04:00:00,60.3,52.0,30.21,South,180,4.0,6.0,74,0.00,,,0.00,meteohub,2013-08-24 09:00:00,
2013-08-24 04:05:00,60.3,52.0,30.21,South,180,4.0,4.0,74,0.00,,,0.00,meteohub,2013-08-24 09:05:00,
2013-08-24 04:10:00,60.4,52.2,30.21,SW,225,6.0,6.0,74,0.00,,,0.00,meteohub,2013-08-24 09:10:00,
2013-08-24 04:15:00,60.4,52.2,30.21,South,180,8.0,8.0,74,0.00,,,0.00,meteohub,2013-08-24 09:15:00,
2013-08-24 04:21:00,60.4,52.2,30.21,South,180,4.0,8.0,74,0.00,,,0.00,meteohub,2013-08-24 09:21:00,
2013-08-24 04:26:00,60.3,52.3,30.22,South,180,5.0,8.0,75,0.00,,,0.00,meteohub,2013-08-24 09:26:00,
2013-08-24 04:31:00,60.3,52.3,30.22,SE,135,4.0,8.0,75,0.00,,,0.00,meteohub,2013-08-24 09:31:00,
2013-08-24 04:36:00,60.3,52.7,30.22,South,180,4.0,5.0,76,0.00,,,0.00,meteohub,2013-08-24 09:36:00,
2013-08-24 04:41:00,60.1,52.5,30.22,SW,225,7.0,7.0,76,0.00,,,0.00,meteohub,2013-08-24 09:41:00,
2013-08-24 04:46:00,60.3,52.7,30.22,South,180,6.0,7.0,76,0.00,,,0.00,meteohub,2013-08-24 09:46:00,
2013-08-24 04:51:00,60.3,52.7,30.22,SE,135,7.0,7.0,76,0.00,,,0.00,meteohub,2013-08-24 09:51:00,
2013-08-24 04:56:00,59.9,52.7,30.22,SE,135,6.0,7.0,77,0.00,,,0.00,meteohub,2013-08-24 09:56:00,
2013-08-24 05:01:00,59.9,52.7,30.22,South,180,6.0,7.0,77,0.00,,,0.00,meteohub,2013-08-24 10:01:00,
2013-08-24 05:06:00,59.9,52.7,30.22,South,180,6.0,7.0,77,0.00,,,0.00,meteohub,2013-08-24 10:06:00,
2013-08-24 05:11:00,59.9,52.7,30.22,South,180,3.0,6.0,77,0.00,,,0.00,meteohub,2013-08-24 10:11:00,
2013-08-24 05:16:00,59.9,52.7,30.22,South,180,5.0,6.0,77,0.00,,,0.00,meteohub,2013-08-24 10:16:00,
2013-08-24 05:21:00,59.9,52.7,30.22,South,180,5.0,7.0,77,0.00,,,0.00,meteohub,2013-08-24 10:21:00,
2013-08-24 05:27:00,59.9,53.1,30.22,SE,135,5.0,7.0,78,0.00,,,0.00,meteohub,2013-08-24 10:27:00,
2013-08-24 05:32:00,59.7,53.2,30.22,South,180,6.0,7.0,79,0.00,,,0.00,meteohub,2013-08-24 10:32:00,
2013-08-24 05:37:00,59.7,53.2,30.22,SW,225,4.0,7.0,79,0.00,,,0.00,meteohub,2013-08-24 10:37:00,
2013-08-24 05:42:00,59.7,53.2,30.22,South,180,4.0,7.0,79,0.00,,,0.00,meteohub,2013-08-24 10:42:00,
2013-08-24 05:47:00,59.7,53.6,30.23,South,180,4.0,7.0,80,0.00,,,0.00,meteohub,2013-08-24 10:47:00,
2013-08-24 05:52:00,59.5,53.8,30.23,South,180,5.0,5.0,81,0.00,,,0.00,meteohub,2013-08-24 10:52:00,
2013-08-24 05:57:00,59.5,53.8,30.23,South,180,4.0,6.0,81,0.00,,,0.00,meteohub,2013-08-24 10:57:00,
2013-08-24 06:02:00,59.5,54.0,30.23,SW,225,4.0,6.0,82,0.00,,,0.00,meteohub,2013-08-24 11:02:00,
2013-08-24 06:07:00,59.5,54.0,30.23,SW,225,4.0,6.0,82,0.00,,,0.00,meteohub,2013-08-24 11:07:00,
2013-08-24 06:12:00,59.4,54.1,30.23,South,180,4.0,7.0,83,0.00,,,0.00,meteohub,2013-08-24 11:12:00,
2013-08-24 06:17:00,59.2,54.3,30.24,SW,225,5.0,7.0,84,0.00,,,0.00,meteohub,2013-08-24 11:17:00,
2013-08-24 06:22:00,58.8,54.3,30.23,SW,225,4.0,7.0,85,0.00,,,0.00,meteohub,2013-08-24 11:22:00,
2013-08-24 06:27:00,58.6,54.1,30.23,SW,225,2.0,6.0,85,0.00,,,0.00,meteohub,2013-08-24 11:27:00,
2013-08-24 06:32:00,58.6,54.5,30.24,SW,225,6.0,6.0,86,0.00,,,0.00,meteohub,2013-08-24 11:32:00,
2013-08-24 06:37:00,59.2,55.0,30.24,SW,225,4.0,6.0,86,0.00,,,0.00,meteohub,2013-08-24 11:37:00,
2013-08-24 06:42:00,59.5,55.4,30.24,South,180,2.0,6.0,86,0.00,,,0.00,meteohub,2013-08-24 11:42:00,
2013-08-24 06:47:00,59.9,55.4,30.24,South,180,3.0,6.0,85,0.00,,,0.00,meteohub,2013-08-24 11:47:00,
2013-08-24 06:52:00,60.4,55.9,30.24,South,180,4.0,4.0,85,0.00,,,0.00,meteohub,2013-08-24 11:52:00,
2013-08-24 06:57:00,60.8,55.9,30.24,South,180,3.0,4.0,84,0.00,,,0.00,meteohub,2013-08-24 11:57:00,
2013-08-24 07:02:00,61.0,55.8,30.24,SW,225,4.0,4.0,83,0.00,,,0.00,meteohub,2013-08-24 12:02:00,
2013-08-24 07:07:00,61.0,55.8,30.24,SW,225,4.0,4.0,83,0.00,,,0.00,meteohub,2013-08-24 12:07:00,
2013-08-24 07:12:00,61.3,56.1,30.23,South,180,4.0,8.0,83,0.00,,,0.00,meteohub,2013-08-24 12:12:00,
2013-08-24 07:17:00,61.2,56.3,30.24,SW,225,4.0,8.0,84,0.00,,,0.00,meteohub,2013-08-24 12:17:00,
2013-08-24 07:22:00,61.0,56.5,30.24,South,180,6.0,8.0,85,0.00,,,0.00,meteohub,2013-08-24 12:22:00,
2013-08-24 07:27:00,60.8,56.3,30.24,South,180,8.0,8.0,85,0.00,,,0.00,meteohub,2013-08-24 12:27:00,
2013-08-24 07:32:00,60.8,56.3,30.24,South,180,6.0,8.0,85,0.00,,,0.00,meteohub,2013-08-24 12:32:00,
2013-08-24 07:37:00,60.8,56.7,30.24,SW,225,6.0,8.0,86,0.00,,,0.00,meteohub,2013-08-24 12:37:00,
2013-08-24 07:42:00,61.5,57.4,30.24,South,180,3.0,8.0,86,0.00,,,0.00,meteohub,2013-08-24 12:42:00,
2013-08-24 07:47:00,62.2,57.9,30.24,South,180,5.0,7.0,86,0.00,,,0.00,meteohub,2013-08-24 12:47:00,
2013-08-24 07:52:00,62.8,58.3,30.24,SE,135,6.0,6.0,85,0.00,,,0.00,meteohub,2013-08-24 12:52:00,
2013-08-24 07:57:00,63.1,58.3,30.24,SE,135,6.0,6.0,84,0.00,,,0.00,meteohub,2013-08-24 12:57:00,
2013-08-24 08:02:00,63.5,58.6,30.24,SE,135,4.0,7.0,84,0.00,,,0.00,meteohub,2013-08-24 13:02:00,
2013-08-24 08:07:00,64.0,59.2,30.24,SE,135,7.0,8.0,84,0.00,,,0.00,meteohub,2013-08-24 13:07:00,
2013-08-24 08:12:00,64.2,59.4,30.24,South,180,10.0,10.0,84,0.00,,,0.00,meteohub,2013-08-24 13:12:00,
2013-08-24 08:17:00,64.4,59.5,30.24,SE,135,7.0,12.0,84,0.00,,,0.00,meteohub,2013-08-24 13:17:00,
2013-08-24 08:22:00,64.9,59.9,30.24,South,180,6.0,12.0,84,0.00,,,0.00,meteohub,2013-08-24 13:22:00,
2013-08-24 08:27:00,65.3,60.1,30.24,South,180,4.0,12.0,83,0.00,,,0.00,meteohub,2013-08-24 13:27:00,
2013-08-24 08:32:00,65.7,60.1,30.24,South,180,7.0,10.0,82,0.00,,,0.00,meteohub,2013-08-24 13:32:00,
2013-08-24 08:37:00,66.2,60.8,30.24,SW,225,4.0,10.0,83,0.00,,,0.00,meteohub,2013-08-24 13:37:00,
2013-08-24 08:42:00,66.4,60.4,30.24,SW,225,5.0,10.0,81,0.00,,,0.00,meteohub,2013-08-24 13:42:00,
2013-08-24 08:47:00,66.6,61.0,30.25,SW,225,7.0,11.0,82,0.00,,,0.00,meteohub,2013-08-24 13:47:00,
2013-08-24 08:52:00,66.6,60.6,30.24,South,180,10.0,11.0,81,0.00,,,0.00,meteohub,2013-08-24 13:52:00,
2013-08-24 08:57:00,67.1,61.3,30.25,South,180,4.0,10.0,82,0.00,,,0.00,meteohub,2013-08-24 13:57:00,
2013-08-24 09:02:00,67.6,61.2,30.25,SW,225,6.0,10.0,80,0.00,,,0.00,meteohub,2013-08-24 14:02:00,
2013-08-24 09:07:00,67.3,60.6,30.25,South,180,7.0,10.0,79,0.00,,,0.00,meteohub,2013-08-24 14:07:00,
2013-08-24 09:12:00,67.8,61.0,30.25,SSW,203,7.0,11.0,79,0.00,,,0.00,meteohub,2013-08-24 14:12:00,
2013-08-24 09:17:00,68.2,61.0,30.25,SW,225,11.0,11.0,78,0.00,,,0.00,meteohub,2013-08-24 14:17:00,
2013-08-24 09:22:00,68.2,61.0,30.24,SSW,203,7.0,11.0,78,0.00,,,0.00,meteohub,2013-08-24 14:22:00,
2013-08-24 09:27:00,68.4,60.8,30.25,South,180,9.0,11.0,77,0.00,,,0.00,meteohub,2013-08-24 14:27:00,
2013-08-24 09:32:00,68.7,61.5,30.25,SW,225,8.0,11.0,78,0.00,,,0.00,meteohub,2013-08-24 14:32:00,
2013-08-24 09:37:00,68.9,61.7,30.25,SW,225,9.0,9.0,78,0.00,,,0.00,meteohub,2013-08-24 14:37:00,
2013-08-24 09:42:00,69.1,61.9,30.24,SW,225,8.0,9.0,78,0.00,,,0.00,meteohub,2013-08-24 14:42:00,
2013-08-24 09:47:00,69.6,62.4,30.25,SW,225,8.0,9.0,78,0.00,,,0.00,meteohub,2013-08-24 14:47:00,
2013-08-24 09:52:00,70.2,62.2,30.25,WSW,248,9.0,9.0,76,0.00,,,0.00,meteohub,2013-08-24 14:52:00,
2013-08-24 09:57:00,70.7,62.8,30.24,SW,225,6.0,9.0,76,0.00,,,0.00,meteohub,2013-08-24 14:57:00,
2013-08-24 10:02:00,70.9,63.0,30.25,South,180,8.0,9.0,76,0.00,,,0.00,meteohub,2013-08-24 15:02:00,
2013-08-24 10:07:00,71.2,63.0,30.24,SW,225,8.0,10.0,75,0.00,,,0.00,meteohub,2013-08-24 15:07:00,
2013-08-24 10:12:00,72.0,64.0,30.24,South,180,8.0,10.0,76,0.00,,,0.00,meteohub,2013-08-24 15:12:00,
2013-08-24 10:17:00,72.5,63.7,30.24,SE,135,8.0,10.0,74,0.00,,,0.00,meteohub,2013-08-24 15:17:00,
2013-08-24 10:22:00,73.2,64.4,30.24,South,180,8.0,9.0,74,0.00,,,0.00,meteohub,2013-08-24 15:22:00,
2013-08-24 10:27:00,73.2,64.0,30.24,South,180,9.0,9.0,73,0.00,,,0.00,meteohub,2013-08-24 15:27:00,
2013-08-24 10:32:00,73.4,64.2,30.25,SW,225,5.0,9.0,73,0.00,,,0.00,meteohub,2013-08-24 15:32:00,
2013-08-24 10:37:00,73.6,64.0,30.24,South,180,7.0,9.0,72,0.00,,,0.00,meteohub,2013-08-24 15:37:00,
2013-08-24 10:42:00,73.9,64.8,30.24,SW,225,7.0,9.0,73,0.00,,,0.00,meteohub,2013-08-24 15:42:00,
2013-08-24 10:47:00,73.9,64.4,30.24,South,180,8.0,10.0,72,0.00,,,0.00,meteohub,2013-08-24 15:47:00,
2013-08-24 10:52:00,73.9,64.8,30.24,South,180,10.0,10.0,73,0.00,,,0.00,meteohub,2013-08-24 15:52:00,
2013-08-24 10:57:00,74.3,65.1,30.24,South,180,7.0,10.0,73,0.00,,,0.00,meteohub,2013-08-24 15:57:00,
2013-08-24 11:02:00,74.7,65.5,30.24,South,180,8.0,10.0,73,0.00,,,0.00,meteohub,2013-08-24 16:02:00,
2013-08-24 11:07:00,74.7,65.5,30.24,SW,225,9.0,12.0,73,0.00,,,0.00,meteohub,2013-08-24 16:07:00,
2013-08-24 11:12:00,75.0,65.8,30.24,SW,225,10.0,12.0,73,0.00,,,0.00,meteohub,2013-08-24 16:12:00,
2013-08-24 11:17:00,75.4,66.6,30.24,South,180,8.0,12.0,74,0.00,,,0.00,meteohub,2013-08-24 16:17:00,
2013-08-24 11:22:00,75.6,66.4,30.24,South,180,8.0,12.0,73,0.00,,,0.00,meteohub,2013-08-24 16:22:00,
2013-08-24 11:27:00,75.9,67.1,30.24,SW,225,8.0,11.0,74,0.00,,,0.00,meteohub,2013-08-24 16:27:00,
2013-08-24 11:32:00,76.3,67.5,30.24,South,180,6.0,11.0,74,0.00,,,0.00,meteohub,2013-08-24 16:32:00,
2013-08-24 11:37:00,76.8,67.5,30.23,South,180,8.0,11.0,73,0.00,,,0.00,meteohub,2013-08-24 16:37:00,
2013-08-24 11:42:00,77.2,67.8,30.23,South,180,9.0,10.0,73,0.00,,,0.00,meteohub,2013-08-24 16:42:00,
2013-08-24 11:47:00,77.5,68.2,30.24,West,270,8.0,10.0,73,0.00,,,0.00,meteohub,2013-08-24 16:47:00,
2013-08-24 11:52:00,78.1,68.4,30.23,South,180,8.0,10.0,72,0.00,,,0.00,meteohub,2013-08-24 16:52:00,
2013-08-24 11:57:00,78.3,68.9,30.23,South,180,8.0,10.0,73,0.00,,,0.00,meteohub,2013-08-24 16:57:00,
2013-08-24 12:02:00,78.4,67.8,30.23,WSW,248,8.0,11.0,70,0.00,,,0.00,meteohub,2013-08-24 17:02:00,
2013-08-24 12:07:00,78.6,68.9,30.22,SW,225,7.0,12.0,72,0.00,,,0.00,meteohub,2013-08-24 17:07:00,
2013-08-24 12:12:00,79.3,68.4,30.22,NW,315,15.0,15.0,69,0.00,,,0.00,meteohub,2013-08-24 17:12:00,
2013-08-24 12:17:00,79.3,67.8,30.22,SW,225,13.0,15.0,68,0.00,,,0.00,meteohub,2013-08-24 17:17:00,
2013-08-24 12:22:00,79.2,68.2,30.22,SW,225,15.0,15.0,69,0.00,,,0.00,meteohub,2013-08-24 17:22:00,
2013-08-24 12:27:00,79.3,67.5,30.22,SW,225,15.0,15.0,67,0.00,,,0.00,meteohub,2013-08-24 17:27:00,
2013-08-24 12:32:00,79.9,68.0,30.22,North,0,11.0,15.0,67,0.00,,,0.00,meteohub,2013-08-24 17:32:00,
2013-08-24 12:37:00,79.7,69.1,30.22,SW,225,10.0,15.0,70,0.00,,,0.00,meteohub,2013-08-24 17:37:00,
2013-08-24 12:42:00,79.7,68.5,30.22,SW,225,12.0,15.0,69,0.00,,,0.00,meteohub,2013-08-24 17:42:00,
2013-08-24 12:47:00,79.7,68.2,30.21,SW,225,14.0,14.0,68,0.00,,,0.00,meteohub,2013-08-24 17:47:00,
2013-08-24 12:52:00,79.3,67.8,30.21,SW,225,11.0,15.0,68,0.00,,,0.00,meteohub,2013-08-24 17:52:00,
2013-08-24 12:57:00,79.5,68.0,30.21,SW,225,14.0,15.0,68,0.00,,,0.00,meteohub,2013-08-24 17:57:00,
2013-08-24 13:02:00,79.5,68.0,30.21,South,180,10.0,15.0,68,0.00,,,0.00,meteohub,2013-08-24 18:02:00,
2013-08-24 13:07:00,79.3,68.4,30.21,South,180,14.0,15.0,69,0.00,,,0.00,meteohub,2013-08-24 18:07:00,
2013-08-24 13:12:00,79.5,67.6,30.21,SW,225,11.0,15.0,67,0.00,,,0.00,meteohub,2013-08-24 18:12:00,
2013-08-24 13:17:00,79.7,69.1,30.21,SW,225,14.0,15.0,70,0.00,,,0.00,meteohub,2013-08-24 18:17:00,
2013-08-24 13:22:00,80.1,68.9,30.21,SW,225,11.0,15.0,69,0.00,,,0.00,meteohub,2013-08-24 18:22:00,
2013-08-24 13:27:00,80.6,67.8,30.21,South,180,10.0,15.0,65,0.00,,,0.00,meteohub,2013-08-24 18:27:00,
2013-08-24 13:32:00,80.4,68.5,30.21,NW,315,10.0,14.0,67,0.00,,,0.00,meteohub,2013-08-24 18:32:00,
2013-08-24 13:37:00,80.1,68.5,30.21,South,180,9.0,13.0,68,0.00,,,0.00,meteohub,2013-08-24 18:37:00,
2013-08-24 13:42:00,80.1,68.2,30.21,SW,225,12.0,13.0,67,0.00,,,0.00,meteohub,2013-08-24 18:42:00,
2013-08-24 13:47:00,80.1,67.6,30.21,SW,225,13.0,15.0,66,0.00,,,0.00,meteohub,2013-08-24 18:47:00,
2013-08-24 13:52:00,80.2,68.4,30.21,SW,225,12.0,15.0,67,0.00,,,0.00,meteohub,2013-08-24 18:52:00,
2013-08-24 13:57:00,80.4,68.9,30.20,SW,225,11.0,17.0,68,0.00,,,0.00,meteohub,2013-08-24 18:57:00,
2013-08-24 14:02:00,81.1,69.1,30.20,SW,225,10.0,17.0,67,0.00,,,0.00,meteohub,2013-08-24 19:02:00,
2013-08-24 14:07:00,81.3,70.2,30.20,West,270,12.0,13.0,69,0.00,,,0.00,meteohub,2013-08-24 19:07:00,
2013-08-24 14:12:00,81.0,69.4,30.20,SW,225,13.0,13.0,68,0.00,,,0.00,meteohub,2013-08-24 19:12:00,
2013-08-24 14:17:00,81.0,68.9,30.20,NNW,338,11.0,14.0,67,0.00,,,0.00,meteohub,2013-08-24 19:17:00,
2013-08-24 14:22:00,81.3,68.9,30.20,NW,315,10.0,14.0,66,0.00,,,0.00,meteohub,2013-08-24 19:22:00,
2013-08-24 14:27:00,80.6,69.1,30.20,NW,315,9.0,15.0,68,0.00,,,0.00,meteohub,2013-08-24 19:27:00,
2013-08-24 14:32:00,81.1,69.6,30.20,SE,135,6.0,15.0,68,0.00,,,0.00,meteohub,2013-08-24 19:32:00,
2013-08-24 14:37:00,81.3,68.9,30.20,SW,225,8.0,15.0,66,0.00,,,0.00,meteohub,2013-08-24 19:37:00,
2013-08-24 14:42:00,80.8,68.4,30.20,SW,225,8.0,11.0,66,0.00,,,0.00,meteohub,2013-08-24 19:42:00,
2013-08-24 14:47:00,80.8,68.7,30.20,South,180,8.0,11.0,67,0.00,,,0.00,meteohub,2013-08-24 19:47:00,
2013-08-24 14:52:00,80.8,69.3,30.19,SSE,158,8.0,11.0,68,0.00,,,0.00,meteohub,2013-08-24 19:52:00,
2013-08-24 14:57:00,81.3,68.9,30.19,South,180,7.0,12.0,66,0.00,,,0.00,meteohub,2013-08-24 19:57:00,
2013-08-24 15:02:00,81.5,68.5,30.19,South,180,7.0,12.0,65,0.00,,,0.00,meteohub,2013-08-24 20:02:00,
2013-08-24 15:07:00,81.1,68.2,30.19,South,180,11.0,12.0,65,0.00,,,0.00,meteohub,2013-08-24 20:07:00,
2013-08-24 15:12:00,81.1,68.2,30.19,South,180,12.0,12.0,65,0.00,,,0.00,meteohub,2013-08-24 20:12:00,
2013-08-24 15:17:00,81.5,68.5,30.18,SW,225,11.0,12.0,65,0.00,,,0.00,meteohub,2013-08-24 20:17:00,
2013-08-24 15:22:00,81.9,68.9,30.18,South,180,10.0,12.0,65,0.00,,,0.00,meteohub,2013-08-24 20:22:00,
2013-08-24 15:27:00,81.7,69.3,30.17,SW,225,9.0,14.0,66,0.00,,,0.00,meteohub,2013-08-24 20:27:00,
2013-08-24 15:32:00,82.0,69.6,30.18,SW,225,9.0,14.0,66,0.00,,,0.00,meteohub,2013-08-24 20:32:00,
2013-08-24 15:37:00,81.5,68.5,30.18,SE,135,13.0,14.0,65,0.00,,,0.00,meteohub,2013-08-24 20:37:00,
2013-08-24 15:42:00,81.3,68.9,30.18,South,180,12.0,13.0,66,0.00,,,0.00,meteohub,2013-08-24 20:42:00,
2013-08-24 15:47:00,81.5,68.5,30.17,South,180,10.0,15.0,65,0.00,,,0.00,meteohub,2013-08-24 20:47:00,
2013-08-24 15:52:00,81.3,68.0,30.18,South,180,15.0,15.0,64,0.00,,,0.00,meteohub,2013-08-24 20:52:00,
2013-08-24 15:57:00,81.3,68.9,30.18,SSW,203,10.0,15.0,66,0.00,,,0.00,meteohub,2013-08-24 20:57:00,
2013-08-24 16:02:00,81.5,69.1,30.17,South,180,14.0,15.0,66,0.00,,,0.00,meteohub,2013-08-24 21:02:00,
2013-08-24 16:07:00,81.5,69.1,30.17,South,180,9.0,15.0,66,0.00,,,0.00,meteohub,2013-08-24 21:07:00,
2013-08-24 16:12:00,81.1,68.7,30.17,South,180,10.0,14.0,66,0.00,,,0.00,meteohub,2013-08-24 21:12:00,
2013-08-24 16:17:00,81.3,69.3,30.17,SW,225,8.0,14.0,67,0.00,,,0.00,meteohub,2013-08-24 21:17:00,
2013-08-24 16:22:00,81.5,69.4,30.17,SW,225,11.0,14.0,67,0.00,,,0.00,meteohub,2013-08-24 21:22:00,
2013-08-24 16:27:00,81.5,68.5,30.17,South,180,17.0,17.0,65,0.00,,,0.00,meteohub,2013-08-24 21:27:00,
2013-08-24 16:32:00,81.7,69.6,30.17,South,180,7.0,17.0,67,0.00,,,0.00,meteohub,2013-08-24 21:32:00,
2013-08-24 16:37:00,81.7,69.6,30.17,South,180,8.0,17.0,67,0.00,,,0.00,meteohub,2013-08-24 21:37:00,
2013-08-24 16:42:00,81.7,68.7,30.17,SW,225,15.0,17.0,65,0.00,,,0.00,meteohub,2013-08-24 21:42:00,
2013-08-24 16:47:00,81.5,68.5,30.17,SW,225,15.0,15.0,65,0.00,,,0.00,meteohub,2013-08-24 21:47:00,
2013-08-24 16:52:00,81.3,68.9,30.17,SE,135,9.0,15.0,66,0.00,,,0.00,meteohub,2013-08-24 21:52:00,
2013-08-24 16:57:00,81.3,68.9,30.17,South,180,10.0,15.0,66,0.00,,,0.00,meteohub,2013-08-24 21:57:00,
2013-08-24 17:02:00,81.5,69.1,30.16,SW,225,8.0,15.0,66,0.00,,,0.00,meteohub,2013-08-24 22:02:00,
2013-08-24 17:07:00,81.5,69.1,30.16,SW,225,8.0,12.0,66,0.00,,,0.00,meteohub,2013-08-24 22:07:00,
2013-08-24 17:12:00,81.3,68.4,30.16,SW,225,10.0,11.0,65,0.00,,,0.00,meteohub,2013-08-24 22:12:00,
2013-08-24 17:17:00,81.3,68.9,30.16,South,180,11.0,15.0,66,0.00,,,0.00,meteohub,2013-08-24 22:17:00,
2013-08-24 17:22:00,81.3,68.4,30.16,SE,135,11.0,15.0,65,0.00,,,0.00,meteohub,2013-08-24 22:22:00,
2013-08-24 17:27:00,81.1,68.2,30.16,SSW,203,11.0,15.0,65,0.00,,,0.00,meteohub,2013-08-24 22:27:00,
2013-08-24 17:32:00,81.1,68.2,30.16,NNE,23,8.0,12.0,65,0.00,,,0.00,meteohub,2013-08-24 22:32:00,
2013-08-24 17:37:00,81.1,69.1,30.16,SW,225,8.0,12.0,67,0.00,,,0.00,meteohub,2013-08-24 22:37:00,
2013-08-24 17:42:00,81.0,68.0,30.16,SW,225,12.0,13.0,65,0.00,,,0.00,meteohub,2013-08-24 22:42:00,
2013-08-24 17:47:00,81.0,68.0,30.16,South,180,8.0,13.0,65,0.00,,,0.00,meteohub,2013-08-24 22:47:00,
2013-08-24 17:52:00,80.8,68.0,30.15,South,180,7.0,13.0,65,0.00,,,0.00,meteohub,2013-08-24 22:52:00,
2013-08-24 17:57:00,80.6,67.8,30.15,SE,135,8.0,12.0,65,0.00,,,0.00,meteohub,2013-08-24 22:57:00,
2013-08-24 18:02:00,80.6,68.2,30.15,South,180,9.0,11.0,66,0.00,,,0.00,meteohub,2013-08-24 23:02:00,
2013-08-24 18:08:00,80.4,68.5,30.16,SW,225,6.0,11.0,67,0.00,,,0.00,meteohub,2013-08-24 23:08:00,
2013-08-24 18:13:00,80.4,68.5,30.16,SW,225,5.0,9.0,67,0.00,,,0.00,meteohub,2013-08-24 23:13:00,
2013-08-24 18:18:00,80.4,68.5,30.16,SW,225,7.0,9.0,67,0.00,,,0.00,meteohub,2013-08-24 23:18:00,
2013-08-24 18:23:00,80.4,68.9,30.16,SW,225,7.0,9.0,68,0.00,,,0.00,meteohub,2013-08-24 23:23:00,
2013-08-24 18:28:00,80.2,68.7,30.15,SW,225,5.0,8.0,68,0.00,,,0.00,meteohub,2013-08-24 23:28:00,
2013-08-24 18:33:00,79.9,68.4,30.16,SW,225,5.0,8.0,68,0.00,,,0.00,meteohub,2013-08-24 23:33:00,
2013-08-24 18:38:00,79.5,68.5,30.16,South,180,8.0,8.0,69,0.00,,,0.00,meteohub,2013-08-24 23:38:00,
2013-08-24 18:43:00,79.2,68.9,30.16,South,180,4.0,8.0,71,0.00,,,0.00,meteohub,2013-08-24 23:43:00,
2013-08-24 18:48:00,78.8,68.5,30.15,SSE,158,4.0,8.0,71,0.00,,,0.00,meteohub,2013-08-24 23:48:00,
2013-08-24 18:54:00,78.3,68.5,30.16,South,180,3.0,8.0,72,0.00,,,0.00,meteohub,2013-08-24 23:54:00,
2013-08-24 18:59:00,78.1,68.7,30.16,South,180,4.0,6.0,73,0.00,,,0.00,meteohub,2013-08-24 23:59:00,
2013-08-24 19:04:00,77.9,68.5,30.16,SSW,203,4.0,5.0,73,0.00,,,0.00,meteohub,2013-08-25 00:04:00,
2013-08-24 19:09:00,77.5,68.5,30.16,SW,225,4.0,5.0,74,0.00,,,0.00,meteohub,2013-08-25 00:09:00,
2013-08-24 19:14:00,77.2,68.7,30.16,SW,225,6.0,6.0,75,0.00,,,0.00,meteohub,2013-08-25 00:14:00,
2013-08-24 19:19:00,76.8,68.7,30.16,SSW,203,5.0,6.0,76,0.00,,,0.00,meteohub,2013-08-25 00:19:00,
2013-08-24 19:24:00,76.5,68.4,30.16,SSW,203,5.0,6.0,76,0.00,,,0.00,meteohub,2013-08-25 00:24:00,
2013-08-24 19:29:00,76.3,68.2,30.16,SW,225,6.0,7.0,76,0.00,,,0.00,meteohub,2013-08-25 00:29:00,
2013-08-24 19:34:00,76.1,68.4,30.16,SSW,203,7.0,7.0,77,0.00,,,0.00,meteohub,2013-08-25 00:34:00,
2013-08-24 19:39:00,75.7,68.0,30.16,South,180,6.0,8.0,77,0.00,,,0.00,meteohub,2013-08-25 00:39:00,
2013-08-24 19:45:00,75.6,68.2,30.16,SW,225,8.0,8.0,78,0.00,,,0.00,meteohub,2013-08-25 00:45:00,
2013-08-24 19:50:00,75.4,68.0,30.16,SW,225,5.0,8.0,78,0.00,,,0.00,meteohub,2013-08-25 00:50:00,
2013-08-24 19:55:00,75.0,68.0,30.16,SW,225,6.0,8.0,79,0.00,,,0.00,meteohub,2013-08-25 00:55:00,
2013-08-24 20:00:00,74.8,68.2,30.16,SW,225,4.0,8.0,80,0.00,,,0.00,meteohub,2013-08-25 01:00:00,
2013-08-24 20:05:00,74.7,68.4,30.17,South,180,5.0,8.0,81,0.00,,,0.00,meteohub,2013-08-25 01:05:00,
2013-08-24 20:10:00,74.3,68.0,30.16,South,180,4.0,6.0,81,0.00,,,0.00,meteohub,2013-08-25 01:10:00,
2013-08-24 20:15:00,74.1,68.0,30.16,South,180,4.0,6.0,81,0.00,,,0.00,meteohub,2013-08-25 01:15:00,
2013-08-24 20:20:00,73.9,68.2,30.17,SW,225,4.0,6.0,82,0.00,,,0.00,meteohub,2013-08-25 01:20:00,
2013-08-24 20:25:00,73.8,68.0,30.16,SW,225,4.0,6.0,82,0.00,,,0.00,meteohub,2013-08-25 01:25:00,
2013-08-24 20:30:00,73.6,67.8,30.16,SE,135,8.0,8.0,82,0.00,,,0.00,meteohub,2013-08-25 01:30:00,
2013-08-24 20:36:00,73.6,68.2,30.16,SW,225,6.0,8.0,83,0.00,,,0.00,meteohub,2013-08-25 01:36:00,
2013-08-24 20:41:00,73.4,68.0,30.17,South,180,4.0,8.0,83,0.00,,,0.00,meteohub,2013-08-25 01:41:00,
2013-08-24 20:46:00,73.0,67.6,30.16,South,180,6.0,8.0,83,0.00,,,0.00,meteohub,2013-08-25 01:46:00,
2013-08-24 20:51:00,73.0,67.6,30.17,South,180,6.0,6.0,83,0.00,,,0.00,meteohub,2013-08-25 01:51:00,
2013-08-24 20:56:00,73.0,68.0,30.17,SW,225,6.0,9.0,84,0.00,,,0.00,meteohub,2013-08-25 01:56:00,
2013-08-24 21:01:00,72.9,68.0,30.17,South,180,6.0,9.0,85,0.00,,,0.00,meteohub,2013-08-25 02:01:00,
2013-08-24 21:06:00,72.9,68.0,30.17,South,180,6.0,9.0,85,0.00,,,0.00,meteohub,2013-08-25 02:06:00,
2013-08-24 21:11:00,72.9,68.0,30.17,South,180,5.0,9.0,85,0.00,,,0.00,meteohub,2013-08-25 02:11:00,
2013-08-24 21:16:00,72.7,67.8,30.17,South,180,6.0,8.0,85,0.00,,,0.00,meteohub,2013-08-25 02:16:00,
2013-08-24 21:21:00,72.7,67.8,30.17,SSW,203,5.0,8.0,85,0.00,,,0.00,meteohub,2013-08-25 02:21:00,
2013-08-24 21:26:00,72.5,68.0,30.18,South,180,4.0,8.0,86,0.00,,,0.00,meteohub,2013-08-25 02:26:00,
2013-08-24 21:31:00,72.5,68.0,30.18,SE,135,7.0,8.0,86,0.00,,,0.00,meteohub,2013-08-25 02:31:00,
2013-08-24 21:37:00,72.5,68.4,30.18,SW,225,7.0,8.0,87,0.00,,,0.00,meteohub,2013-08-25 02:37:00,
2013-08-24 21:42:00,72.3,68.2,30.18,SW,225,6.0,7.0,87,0.00,,,0.00,meteohub,2013-08-25 02:42:00,
2013-08-24 21:47:00,72.0,68.2,30.18,South,180,5.0,7.0,88,0.00,,,0.00,meteohub,2013-08-25 02:47:00,
2013-08-24 21:52:00,72.0,68.2,30.18,South,180,5.0,7.0,88,0.00,,,0.00,meteohub,2013-08-25 02:52:00,
2013-08-24 21:57:00,71.8,68.0,30.18,SW,225,5.0,7.0,88,0.00,,,0.00,meteohub,2013-08-25 02:57:00,
2013-08-24 22:02:00,71.8,68.4,30.18,SW,225,7.0,8.0,89,0.00,,,0.00,meteohub,2013-08-25 03:02:00,
2013-08-24 22:07:00,71.8,68.4,30.18,SW,225,7.0,8.0,89,0.00,,,0.00,meteohub,2013-08-25 03:07:00,
2013-08-24 22:12:00,71.4,68.4,30.18,SW,225,5.0,8.0,90,0.00,,,0.00,meteohub,2013-08-25 03:12:00,
2013-08-24 22:17:00,71.4,68.4,30.18,South,180,7.0,8.0,90,0.00,,,0.00,meteohub,2013-08-25 03:17:00,
2013-08-24 22:22:00,71.4,68.7,30.17,SSW,203,6.0,8.0,91,0.00,,,0.00,meteohub,2013-08-25 03:22:00,
2013-08-24 22:27:00,71.4,68.7,30.18,SW,225,9.0,9.0,91,0.00,,,0.00,meteohub,2013-08-25 03:27:00,
2013-08-24 22:32:00,71.2,68.5,30.17,SE,135,6.0,11.0,91,0.00,,,0.00,meteohub,2013-08-25 03:32:00,
2013-08-24 22:37:00,71.2,68.5,30.17,SW,225,6.0,11.0,91,0.00,,,0.00,meteohub,2013-08-25 03:37:00,
2013-08-24 22:42:00,71.1,68.5,30.17,SW,225,8.0,11.0,92,0.00,,,0.00,meteohub,2013-08-25 03:42:00,
2013-08-24 22:47:00,71.1,68.5,30.17,West,270,8.0,10.0,92,0.00,,,0.00,meteohub,2013-08-25 03:47:00,
2013-08-24 22:52:00,71.1,68.9,30.17,SW,225,8.0,11.0,93,0.00,,,0.00,meteohub,2013-08-25 03:52:00,
2013-08-24 22:57:00,71.1,68.9,30.17,West,270,9.0,11.0,93,0.00,,,0.00,meteohub,2013-08-25 03:57:00,
2013-08-24 23:01:00,71.1,68.9,30.17,SW,225,8.0,11.0,93,0.00,,,0.00,meteohub,2013-08-25 04:01:00,
2013-08-24 23:02:00,71.1,68.9,30.17,SW,225,8.0,11.0,93,0.00,,,0.00,meteohub,2013-08-25 04:02:00,
2013-08-24 23:03:00,71.1,68.9,30.17,SW,225,8.0,11.0,93,0.00,,,0.00,meteohub,2013-08-25 04:03:00,
2013-08-24 23:08:00,71.1,69.3,30.17,SW,225,11.0,11.0,94,0.00,,,0.00,meteohub,2013-08-25 04:08:00,
2013-08-24 23:13:00,71.1,68.9,30.17,SW,225,11.0,11.0,93,0.00,,,0.00,meteohub,2013-08-25 04:13:00,
2013-08-24 23:18:00,71.1,68.9,30.17,South,180,8.0,13.0,93,0.00,,,0.00,meteohub,2013-08-25 04:18:00,
2013-08-24 23:23:00,71.1,69.3,30.17,South,180,11.0,13.0,94,0.00,,,0.00,meteohub,2013-08-25 04:23:00,
2013-08-24 23:28:00,70.9,69.1,30.17,SW,225,9.0,13.0,94,0.00,,,0.00,meteohub,2013-08-25 04:28:00,
2013-08-24 23:33:00,70.9,69.1,30.17,SW,225,11.0,12.0,94,0.00,,,0.00,meteohub,2013-08-25 04:33:00,
2013-08-24 23:39:00,70.9,69.1,30.16,South,180,12.0,12.0,94,0.00,,,0.00,meteohub,2013-08-25 04:39:00,
2013-08-24 23:44:00,70.9,69.1,30.17,South,180,10.0,12.0,94,0.00,,,0.00,meteohub,2013-08-25 04:44:00,
2013-08-24 23:49:00,70.9,69.1,30.17,South,180,11.0,12.0,94,0.00,,,0.00,meteohub,2013-08-25 04:49:00,
2013-08-24 23:54:00,70.7,69.3,30.17,South,180,10.0,12.0,95,0.00,,,0.00,meteohub,2013-08-25 04:54:00,
2013-08-24 23:59:00,70.7,69.3,30.17,SW,225,7.0,12.0,95,0.00,,,0.00,meteohub,2013-08-25 04:59:00,